SL-14 R/B

Satellite information

Favourite Embed

Satellite Type and Status

ROCKET BODYIN ORBIT

Key statistics

Satellite SL-14 R/B at a glance.

Uptime

15460

Days in orbit

Revolutions

≈ 14.9

Per day

Orbit

LEO

Low Earth Orbit

Inclination

82.5

Latest

Satellite identification and parameters

Extended collection of information and parameters for SL-14 R/B.

Object identification

Identified? True

Debris? False

Object name: SL-14 R/B

International designator: 1983-061B

Object number (NORAD): 14148

Object ID (CCSDS): 14148

Country: COMMONWEALTH OF INDEPENDENT STATES (CIS)

Current information (Y/N): Y

RCS size: LARGE

Orbital parameters

Period: 96.939 minutes

Inclination: 82.5148 deg

SMA: 6990.239 km

Apoapsis: 626.798 km

Periapsis: 597.409 km

RAAN: 294.5647 deg

Eccentricy: 0.00210215

Argument of periapsis: 10.5352 deg

Mean anomaly: 349.63 deg

Mean motion: 14.85472899 rev/day

Mean motion (dot): 0.00000869 rev/day2

B* drag term: 0.000097651688 1/REarth

Two-line elements (TLE)

Creation date: Oct. 19, 2025, 2:20 a.m.

Reference frame: TEME

Reference center: EARTH

Epoch: Oct. 18, 2025, 11:16 p.m. UTC

TLE line 0: 0 SL-14 R/B

TLE line 1: 1 14148U 83061B 25291.96971271 .00000869 00000-0 97652-4 0 9993

TLE line 2: 2 14148 82.5148 294.5647 0021021 10.5352 349.6300 14.85472899265350

Live tracking on map

Real-time ground track for satellite SL-14 R/B.

In-orbit conjunctions

A list of the most updated potential collisions computed for object SL-14 R/B.

Target Orbit TCA Probability of collision Miss distance Type
COSMOS 2251 DEB LEO 2025-08-09 19:09:17 0.0004419091 27.0 (m) DEBRIS
COSMOS 2251 DEB LEO 2025-07-25 12:13:05 0.0003142861 82.0 (m) DEBRIS
CZ-6A DEB SSO 2025-06-25 05:02:28 0.0006285918 117.0 (m) DEBRIS
OBJECT H SSO 2024-10-14 12:23:29 0.00476027 204.0 (m) UNKNOWN
SURCAL 150B LEO 2024-09-10 07:45:14 0.002771819 524.0 (m) PAYLOAD

Associated space launch

There is no information available about the launch of this satellite, yet. Check back as we update our databases every day.

Latest news about this satellite

There are no fresh news available about this satellite. Check back as we update our databases every day.


Newsletter sign-up

Weekly statistics, charts and insights to help you stay on top of the space industry.